{"data":{"norad_id":57942,"intl_designator":"2023-148H","name":"STARLINK-30455","alt_names":[],"object_type":"PAYLOAD","status":"ACTIVE","operator":null,"country":"US","launch_date":"2023-09-25","launch_site_code":"AFWTR","launch_vehicle":null,"mission":null,"orbit_class":"UNKNOWN","rcs_meters":null,"size_class":null,"mass_kg":null,"dimensions":null,"purposes":["comms"],"wikipedia_slug":null,"has_3d_model":false,"image_url":null,"decayed_at":null,"tle_current":{"epoch":"2026-05-25T01:57:22.434624Z","epoch_age_seconds":61957,"freshness":"FRESH","line1":"1 57942U 23148H   26145.08150966  .00005421  00000+0  19519-3 0  9997","line2":"2 57942  53.1610  29.6490 0001570  84.3340 275.7839 15.30174485150117","mean_motion":15.30174485,"eccentricity":0.000157,"inclination_deg":53.161,"raan_deg":29.649,"arg_perigee_deg":84.334,"mean_anomaly_deg":275.7839,"bstar":0.00019519,"rev_number":15011,"period_min":94.106914872522,"perigee_km":474.21526543299,"apogee_km":476.36724190464,"semimajor_km":6853.4282536688,"source":"CELESTRAK","updated_at":"2026-05-25T13:38:18.461587Z"}}}